Regional Weather Roundup
Issued by NWS

Home | Current Version | Previous Version | Text Only | Print | Product List | Glossary Off
Versions: 1 2 3 4 5 6 7 8 9 10 11 12 13 14 15 16 17 18 19 20 21 22 23 24 25 26 27 28 29 30 31 32 33 34 35 36 37 38 39 40 41 42 43 44 45 46 47 48 49 50

459
ASUS45 KCYS 231510
RWRWY

WYOMING REGIONAL WEATHER ROUNDUP
NATIONAL WEATHER SERVICE CHEYENNE WY
900 AM MDT THU MAR 23 2017

NOTE:  "FAIR" INDICATES FEW OR NO CLOUDS BELOW 12,000 FEET
WITH NO SIGNIFICANT WEATHER AND/OR OBSTRUCTIONS TO VISIBILITY.

WYZ001-231600-
YELLOWSTONE NATIONAL PARK

CITY           SKY/WX    TMP DP  RH WIND       PRES   REMARKS
LK YELLOWSTONE   N/A     31  26  82 VRB5      29.82R WCI  26
W YELLOWSTONE  NOT AVBL

$$
WYZ002>013-054>058-071-098>099-231600-
NORTHERN WYOMING

CITY           SKY/WX    TMP DP  RH WIND       PRES   REMARKS
JACKSON        PTSUNNY   36  32  87 N5        29.76R WCI  32
CODY           CLOUDY    44  32  62 N8        29.77R
GREYBULL       LGT RAIN  47  43  86 NW9       29.70R FOG
WORLAND        CLOUDY    45  43  93 N7        29.69F
SHERIDAN       LGT RAIN  44  42  93 NW5       29.77R
BUFFALO        LGT RAIN  42  38  85 N14G22    29.76R
GILLETTE       LGT RAIN  43  42  97 NW10      29.71F
HULETT         PTSUNNY   46  41  81 E6        29.67F
NEWCASTLE      FAIR      46  37  71 S7        29.67F

$$
WYZ014>020-022>026-101>103-231600-
CENTRAL WYOMING

CITY           SKY/WX    TMP DP  RH WIND       PRES   REMARKS
BIG PINEY      LGT SNOW  33  33 100 NW5       29.71F FOG     WCI  29
PINEDALE       CLOUDY    34  34 100 NW7       29.71S WCI  28
DUBOIS         MIX PCPN  32  32 100 N5        29.74R WCI  27
LANDER         LGT RAIN  38  35  89 SW3       29.71F FOG
RIVERTON       RAIN      40  39  97 SW7       29.73S FOG
CASPER         CLOUDY    41  40  96 W5        29.72R
DOUGLAS        FAIR      46  39  76 NW9       29.70F

$$
WYZ021-027>030-104>119-231600-
SOUTHERN WYOMING

CITY           SKY/WX    TMP DP  RH WIND       PRES   REMARKS
EVANSTON       LGT SNOW  32  29  88 NW8       29.72S FOG     WCI  25
KEMMERER       SNOW      32  32 100 N8        29.71S VSB 1/2 WCI  25
FORT BRIDGER   CLOUDY    36  36 100 W8        29.74R FOG     WCI  29
ROCK SPRINGS   CLOUDY    40  36  86 SE16      29.69S WCI  31
DIXON            N/A     43  35  75 CALM      29.78S
RAWLINS        CLOUDY    42  34  73 CALM      29.73F
SARATOGA       FAIR      52  27  37 S12G17    29.74S
LARAMIE        FAIR      51  24  34 S23       29.74S
CHEYENNE       FAIR      51  32  48 E5        29.72F
TORRINGTON     FAIR      43  34  70 VRB5      29.67F
PINE BLUFFS    FAIR      46  36  66 W12       29.70F

$$




USA.gov is the U.S. government's official web portal to all federal, state and local government web resources and services.